Flag for Canada Weather past 2 weeks in Regina, Saskatchewan, Canada

Now
54 °F

Mostly cloudy.


Feels Like: 50 °F
Forecast: 51 / 58 °F
Wind: 13 mph from Northeast

Location: Regina Weather Station

Current Time: Aug 23, 2014 at 6:08:17 AM

Latest Report: Aug 23, 2014 at 5:00 AM


Visibility: 15 mi

Pressure: 30.24 "Hg

Humidity: 88%

Dew point: 50 °F

Location of ReginaLocation

Historic Weather in Regina — Graph

°F

Regina temperature yesterday

Maximum temperature yesterday: 68 °F (at 3:00 PM)
Minimum temperature yesterday: 57 °F (at 3:00 AM)
Average temperature yesterday: 61 °F

Past Weeks' High & Low Weather Summary

 TemperatureHumidityPressure
High88 °F (Aug 14, 4:00 PM)100% (Aug 8, 5:00 AM)30.29 "Hg (Aug 8, 5:00 AM)
Low50 °F (Aug 10, 6:00 AM)43% (Aug 19, 2:00 PM)29.58 "Hg (Aug 20, 4:00 AM)
Average67 °F79%29.97 "Hg
* Reported Aug 8 5:00 AM — Aug 23 5:00 AM, Regina, Weather by CustomWeather, © 2014

Note: Actual official high and low records may vary slightly from our data, if they occured in-between our weather recording intervals... More about our weather records

Advertising

Regina weather history for previous 24 hours

 ConditionsComfort  
Time TempWeatherWind HumidityBarometerVisibility
5:00 AM
Aug 23
54 °FMostly cloudy.13 mph88%30.24 "Hg15 mi
4:00 AM54 °FMostly cloudy.10 mph88%30.25 "Hg15 mi
3:00 AM54 °FPassing clouds.12 mph88%30.24 "Hg15 mi
2:00 AM55 °FOvercast.10 mph88%30.24 "Hg15 mi
1:00 AM55 °FOvercast.9 mph88%30.25 "Hg15 mi
12:00 AM57 °FMostly cloudy.10 mph82%30.25 "Hg15 mi
11:00 PM
Aug 22
57 °FOvercast.10 mph77%30.25 "Hg15 mi
10:00 PM57 °FPassing clouds.12 mph77%30.25 "Hg15 mi
9:00 PM59 °FPassing clouds.9 mph77%30.25 "Hg15 mi
8:00 PM61 °FCloudy.10 mph72%30.23 "Hg15 mi
7:00 PM63 °FPartly sunny.12 mph68%30.22 "Hg15 mi
6:00 PM64 °FCloudy.15 mph64%30.21 "Hg15 mi
5:00 PM66 °FBroken clouds.13 mph60%30.21 "Hg15 mi
4:54 PM66 °FBroken clouds.15 mph60%30.20 "Hg15 mi
4:00 PM66 °FBroken clouds.14 mph60%30.20 "Hg15 mi
3:00 PM68 °FBroken clouds.13 mph56%30.19 "Hg15 mi
2:00 PM64 °FPartly sunny.12 mph64%30.21 "Hg15 mi
1:00 PM64 °FPartly sunny.10 mph68%30.20 "Hg15 mi
12:00 PM64 °FOvercast.14 mph64%30.20 "Hg15 mi
11:00 AM63 °FPartly sunny.10 mph73%30.21 "Hg15 mi
10:00 AM61 °FOvercast.9 mph77%30.21 "Hg15 mi
9:00 AM59 °FBroken clouds.9 mph88%30.20 "Hg15 mi
8:00 AM59 °FPartly sunny.8 mph82%30.20 "Hg15 mi
7:00 AM57 °FMostly cloudy.8 mph94%30.19 "Hg15 mi
6:00 AM57 °FPartly sunny.8 mph94%30.18 "Hg15 mi
Weather by CustomWeather, © 2014

See weather overviewHow to use our weather pages